User: anonymous   Login
Location: Grasslands National Park East Block
(49.0708°N, 106.5295°W)
Time: 02:53:50
(UTC-06:00)
Language:

Tiros 1 - Orbit

View from above orbital plane
View from above orbital plane
View from above satellite
View from above satellite

Ground track
Ground track

The orbit data is extracted from the following two-line orbital elements,

1    29U 60002B   19259.10715975 -.00000139  00000-0  10395-4 0  9996
2    29  48.3793 168.0252 0023596 135.2244 225.0577 14.74317452178032
Epoch (UTC): 16 September 2019 02:34:18
Eccentricity: 0.0023596
inclination: 48.3793°
perigee height: 631 km
apogee height: 664 km
right ascension of ascending node: 168.0252°
argument of perigee: 135.2244°
revolutions per day: 14.74317452
mean anomaly at epoch: 225.0577°
orbit number at epoch: 17803

The dashed part of the orbit path shows where the satellite is in the earth's shadow,  

DLR